{"data":{"norad_id":61940,"epoch":"2026-05-24T20:24:31.189536Z","epoch_age_seconds":87703,"freshness":"FRESH","line1":"1 61940U 24209B   26144.85036099  .00118242  00000+0  96584-3 0  9996","line2":"2 61940  53.1579 355.5365 0000925  77.3731 282.7390 15.69738367 88684","mean_motion":15.69738367,"eccentricity":9.25e-5,"inclination_deg":53.1579,"raan_deg":355.5365,"arg_perigee_deg":77.3731,"mean_anomaly_deg":282.739,"bstar":0.00096584,"rev_number":8868,"period_min":91.735032427859,"perigee_km":359.02233125825,"apogee_km":360.26882103483,"semimajor_km":6737.7825761465,"source":"CELESTRAK","updated_at":"2026-05-25T13:38:19.485922Z"}}